Flag for USA

Past Weather in Shreveport, Louisiana, USA — Yesterday and Last 2 Weeks

Now
65 °F

Clear.


Feels Like: 65 °F
Forecast: 80 / 58 °F
Wind: 3 mph from Southwest

Location: Shreveport Regional Airport
Current Time: Sep 30, 2020 at 11:30:33 pm
Latest Report: Sep 30, 2020 at 10:56 pm
Visibility: 10 mi
Pressure30.05 "Hg
Humidity: 68%
Dew Point: 54 °F
Location of ShreveportLocation

Past Weather in Shreveport — Graph

°F

Shreveport Temperature Yesterday

Maximum temperature yesterday: 80 °F (at 2:56 pm)
Minimum temperature yesterday: 53 °F (at 5:56 am)
Average temperature yesterday: 65 °F

High & Low Weather Summary for the Past Weeks

 TemperatureHumidityPressure
High89 °F (Sep 16, 3:56 pm)93% (Sep 26, 3:14 am)30.14 "Hg (Sep 26, 3:14 am)
Low52 °F (Sep 30, 5:56 am)23% (Sep 29, 2:56 pm)29.70 "Hg (Sep 27, 5:56 pm)
Average72 °F72%29.97 "Hg
* Reported Sep 15 9:56 pm — Sep 30 9:56 pm, Shreveport. Weather by CustomWeather, © 2020

Note: Actual official high and low records may vary slightly from our data, if they occured in-between our weather recording intervals... More about our weather records

Shreveport Weather History for the Previous 24 Hours

Scroll right to see more
 ConditionsComfort  
Time TempWeatherWind HumidityBarometerVisibility
9:56 pm
Wed, Sep 30
69 °FClear.7 mph57%30.04 "Hg10 mi
8:56 pm71 °FClear.8 mph51%30.03 "Hg10 mi
7:56 pm72 °FClear.6 mph49%30.02 "Hg10 mi
6:56 pm76 °FPassing clouds.6 mph43%30.01 "Hg10 mi
5:56 pm83 °FPassing clouds.8 mph31%30.01 "Hg10 mi
4:56 pm85 °FPassing clouds.8 mph27%30.01 "Hg10 mi
3:56 pm86 °FSunny.8 mph26%30.01 "Hg10 mi
2:56 pm86 °FSunny.6 mph28%30.02 "Hg10 mi
1:56 pm85 °FSunny.9 mph27%30.05 "Hg10 mi
12:56 pm83 °FSunny.7 mph28%30.06 "Hg10 mi
11:56 am81 °FSunny.9 mph30%30.07 "Hg10 mi
10:56 am77 °FSunny.8 mph35%30.07 "Hg10 mi
9:56 am71 °FSunny.6 mph45%30.07 "Hg10 mi
8:56 am62 °FSunny.3 mph60%30.08 "Hg10 mi
7:56 am56 °FSunny.No wind75%30.08 "Hg10 mi
6:56 am52 °FClear.No wind77%30.06 "Hg10 mi
5:56 am52 °FClear.No wind77%30.05 "Hg10 mi
4:56 am53 °FClear.No wind74%30.03 "Hg10 mi
3:56 am56 °FClear.3 mph67%30.03 "Hg10 mi
2:56 am56 °FClear.No wind70%30.03 "Hg10 mi
1:56 am56 °FClear.No wind70%30.04 "Hg10 mi
12:56 am58 °FClear.3 mph67%30.04 "Hg10 mi
11:56 pm
Tue, Sep 29
58 °FClear.No wind72%30.06 "Hg10 mi
Weather by CustomWeather, © 2020

See weather overview